Regional Weather Roundup
Issued by NWS Newport/Morehead, NC

Current Version | Previous Version | Text Only | Print | Product List | Glossary On
Versions: 1 2 3 4 5 6 7 8 9 10 11 12 13 14 15 16 17 18 19 20 21 22 23 24 25 26 27 28 29 30 31 32 33 34 35 36 37 38 39 40 41 42 43 44 45 46 47 48 49 50
000 ASUS42 KMHX 311713 RWRMHX WEATHER ROUNDUP FOR EASTERN NORTH CAROLINA NATIONAL WEATHER SERVICE NEWPORT/MOREHEAD CITY NC 100 PM EDT TUE MAY 31 2016 NOTE: "FAIR" INDICATES FEW OR NO CLOUDS BELOW 12,000 FEET WITH NO SIGNIFICANT WEATHER AND/OR OBSTRUCTIONS TO VISIBILITY NCZ015>017-031-032-045>047-102-103-311800- NORTH COAST CITY SKY/WX TMP DP RH WIND PRES REMARKS EDENTON PTSUNNY N/A N/A N/A E7 29.97F ELIZABETH CITY CLOUDY 80 70 71 E10 29.97F KITTY HAWK CLOUDY 75 68 78 NE5 29.97F MANTEO CLOUDY 74 71 90 E8 29.98F $$ NCZ045>047-081-094-103-104-311800- CENTRAL COAST CITY SKY/WX TMP DP RH WIND PRES REMARKS FRISCO CLOUDY 77 72 84 NE8 29.96S $$ NCZ095-097-098-100-101-311800- SOUTHERN COAST CITY SKY/WX TMP DP RH WIND PRES REMARKS BEAUFORT LGT RAIN 79 73 82 E9 29.93F CEDAR ISLAND NOT AVBL JACKSONVILLE LGT RAIN 76 71 85 NE7 29.91F PINEY ISLAND NOT AVBL WILMINGTON CLOUDY 78 71 79 E9 29.91S $$ NCZ011>013-027>030-043-044-078>080-089-090>093-098-311800- COASTAL PLAIN CITY SKY/WX TMP DP RH WIND PRES REMARKS AHOSKIE MOSUNNY 78 67 70 NE5 29.98S CLINTON PTSUNNY 82 72 69 NE8 29.94F ELIZABETHTOWN PTSUNNY 80 70 71 CALM 29.93F GOLDSBORO MOSUNNY 83 73 70 NE10 29.93F GREENVILLE PTSUNNY 81 70 69 NE9 29.98S HAVELOCK CLOUDY 80 72 76 NE14 29.94F KENANSVILLE MOSUNNY 80 69 68 NE3 29.94F KINSTON MOSUNNY 82 70 65 N9 29.94F NEW BERN RAIN 73 71 93 E8 29.96R FOG RICHLANDS CLOUDY 77 73 87 NE8 29.93F ROCKY MOUNT PTSUNNY 81 68 64 N9 29.97S WASHINGTON MOSUNNY 80 70 71 NE6 29.95F HAZE WHITEVILLE MOSUNNY 79 71 74 N6 29.91F $$ AMZ130-135-150-152-154-156-158-170-250-252-270-ANZ085-086-088-633-658-670-311800- MARINE OBSERVATIONS STATION/POSITION TIME TEMP WIND PRES WAVE SWELL AIR SEA DIR/SP/G HT/PER HT/PER (UTC) (F) (DEG/KT/KT) (MB) (FT/S) (FT/S) CHESAPEAKE LIGHT 1700 69 80/ 4/ 4 1016.1 64 E VA BEACH 1650 66 65 20/ 6/ 8 1015.0 5/ 8 5/ 8 DUCK 1600 68 61 30/ 5/ 7 1014.8 2 E DUCK 1611 68 N/A 3/ 8 OREGON INLET 1600 71 72 30/ 10/ 12 1015.1 13E OREGON INLT 1700 69 N/A 4/ 8 3/ 8 HATTERAS CG 1600 73 74 30/ 10/ 14 1013.7 DIAMOND BUOY 1550 76 80 360/ 10/ 12 1014.2 5/ 8 5/ 8 CAPE LOOKOUT 1700 76 70/ 10/ 10 1013.0 BEAUFORT LAB 1600 78 76 70/ 7/ 12 1013.2 30 SE NEW RVR IN 1625 76 N/A 5/ 8 27 SE WRIGHTSVLE 1608 77 76 60/ 8/ 10 1012.7 5 SE WRIGHTSVLE 1608 77 76 70/ 14/ 19 1013.4 225 S CAPE HAT 1650 76 77 170/ 12/ 14 1015.5 4/ 8 3/ 8 41 SE CHARLESTON 1650 74 77 300/ 8/ 10 1012.8 4/ 8 3/ 8 $$

USA.gov is the U.S. government's official web portal to all federal, state and local government web resources and services.